Tracking 19638 objects as of 19-Apr-2019
HD Live streaming from Space Station
objects crossing your sky now

THORAD DELTA 1 DEB

Track THORAD DELTA 1 DEB now!
10-day predictions


NORAD ID: 8169
Int'l Code: 1974-089AK
Perigee: 1,192.9 km
Apogee: 1,440.6 km
Inclination: 102.5 °
Period: 111.8 minutes
Semi major axis: 7687 km
RCS: 0.058 m2 (small)
Launch date: November 15, 1974
Source: United States (US)
Launch site: AIR FORCE WESTERN TEST RANGE (AFWTR)

Note: This is SATELLITE DEBRIS
aabbcc
Your satellite tracking list
Your tracking list is empty




NASA's NSSDC Master Catalog

Two Line Element Set (TLE):
1  8169U 74089AK  19108.48081542 +.00000981 +00000-0 +38520-2 0  9991
2  8169 102.5225 087.4437 0161113 331.8474 146.4457 12.87964781063248
Source of the keplerian elements: AFSPC